Dewpoint
36 37 36 34 34 34 36 36 36 36 37 36 39 40 38 34 17 18 39 38 38 37 38 38 38 38 37 37 37 37 37 36 35 35 34 34 35 35 35 36 36 37 38 39 40 40 40 40 40 40 39 39 41 41 40 41 42 43 43 44 44 44 45 46 46 46 47 47 48 47 47 47 48 49 50 51 52 53 56 58 60 61 61 61 61 61 61
36 35 34 35 33 34 34 35 36 38 37 38 38 38 38 39 39 40 39 38 38 37 37 37 38 38 37 37 37 36 35 34 34 33 33 33 34 34 35 37 37 38 38 38 39 40 40 39 39 39 39 39 40 41 41 41 42 43 43 44 44 44 44 45 45 44 45 46 45 46 46 46 46 48 48 49 50 51 52 54 57 59 59 60 61 61 61
34 36 36 34 34 35 35 34 35 36 37 38 38 38 38 38 38 39 38 37 34 38 37 36 37 37 36 36 35 35 35 34 34 33 33 33 33 33 34 36 37 37 38 38 38 39 39 39 39 39 40 40 41 40 41 41 41 42 42 42 43 43 43 44 44 44 44 44 45 45 45 45 46 46 46 48 48 49 50 52 53 55 59 59 60 61 60
33 34 36 37 37 36 35 35 35 36 37 36 37 36 38 39 37 36 36 34 33 35 36 36 36 36 36 35 35 34 33 34 34 33 34 34 34 35 35 36 36 36 37 38 38 39 39 39 39 39 39 40 40 40 40 40 41 41 42 42 42 43 43 43 43 43 44 44 44 45 45 44 44 45 45 46 46 47 48 49 51 53 54 56 59 61 61
31 34 34 35 34 32 30 32 35 36 36 36 36 36 37 39 38 34 32 33 35 36 35 34 35 35 34 34 34 33 33 34 33 33 33 33 34 34 35 35 36 37 37 37 38 39 38 38 38 39 39 39 39 40 40 41 41 41 41 42 42 42 42 43 43 44 43 43 43 43 44 44 44 44 44 44 45 46 46 48 49 49 50 51 53 58 60
31 34 35 37 31 22 27 36 37 38 37 36 36 36 37 37 38 35 36 35 35 35 35 34 34 34 35 35 35 34 33 33 33 33 33 34 35 35 36 36 36 37 37 37 38 39 39 39 38 39 40 40 40 40 40 39 40 40 40 41 41 41 42 43 43 43 43 43 43 43 43 44 44 43 44 44 45 45 46 46 47 47 48 48 50 51 55
30 33 35 29 24 26 34 38 37 37 37 37 35 36 36 37 37 36 35 34 34 34 34 34 34 34 34 34 33 33 33 34 34 34 34 35 35 36 37 37 37 38 38 38 39 39 39 39 40 39 39 39 39 39 39 39 39 39 40 40 41 42 42 43 43 43 43 43 43 43 43 43 44 43 43 44 44 44 45 45 45 45 46 46 47 48 49
31 30 29 23 25 33 36 37 38 39 37 37 37 35 36 36 36 35 34 34 34 33 33 34 33 33 33 34 35 35 35 35 35 35 35 36 36 36 37 37 38 37 37 38 38 38 38 37 37 38 38 39 38 38 39 38 38 39 39 39 40 41 41 42 43 43 43 43 43 42 43 43 43 43 43 43 44 44 44 44 44 44 45 45 45 45 46
28 28 28 30 33 34 34 35 35 35 34 36 34 31 33 37 36 35 33 33 33 33 32 32 33 33 34 33 34 36 35 36 36 36 36 36 36 37 37 37 37 37 38 38 38 38 38 37 37 38 38 38 38 38 38 38 37 37 38 39 39 40 41 42 42 42 43 43 42 42 42 42 42 43 43 43 43 43 43 43 43 43 43 43 43 43 44
29 27 27 28 27 26 30 35 37 38 41 39 38 35 33 37 36 35 34 33 33 32 32 32 33 34 32 31 32 34 35 36 36 36 36 36 36 36 37 36 37 37 37 36 37 36 36 36 37 37 36 37 36 37 37 37 36 37 36 36 38 39 40 41 41 42 42 42 42 42 42 42 41 42 42 42 42 42 42 42 42 42 42 42 42 42 42
28 27 25 25 25 27 33 36 37 40 40 39 39 34 31 35 35 34 34 33 33 32 32 32 33 33 31 31 32 34 35 35 35 34 35 35 36 36 37 38 36 36 36 36 35 35 36 35 36 37 36 36 34 35 36 36 36 36 36 35 36 37 38 39 40 41 42 42 42 42 42 43 43 42 41 41 42 42 42 41 41 41 41 40 41 41 42
27 26 24 25 28 28 34 37 37 36 38 40 37 26 29 36 35 35 34 33 32 32 32 34 35 33 30 31 32 35 35 35 35 35 35 36 36 35 36 37 36 35 35 34 35 36 35 36 37 36 35 35 35 34 35 35 36 36 36 36 35 35 36 37 39 40 41 42 42 42 42 43 43 43 43 42 42 41 41 41 41 41 41 40 40 41 41
27 27 26 26 28 34 37 36 37 37 40 37 29 24 32 36 35 35 35 34 33 33 34 36 35 34 33 33 34 35 35 34 35 36 36 36 36 35 35 35 36 33 34 34 33 34 34 35 35 35 34 36 35 34 35 35 36 36 37 36 36 36 36 36 37 37 39 41 42 42 42 42 42 42 42 43 43 42 41 40 41 41 41 41 41 41 41
25 26 24 25 29 35 37 37 37 38 37 27 23 35 38 36 36 35 34 34 35 37 37 36 35 34 34 35 35 34 34 35 35 35 36 36 35 34 35 37 36 35 33 35 34 34 34 33 33 33 33 34 34 34 34 34 35 35 36 35 35 35 35 35 36 36 38 40 42 42 42 41 41 41 42 42 41 42 41 41 41 40 41 41 41 41 42
27 25 25 23 23 32 39 39 36 39 33 32 36 37 37 36 36 35 35 36 37 37 35 35 34 34 34 34 34 34 35 34 35 35 35 35 35 34 35 34 32 31 31 32 32 33 32 33 34 34 34 34 33 33 33 35 35 34 35 35 34 35 36 36 37 36 38 39 40 41 41 41 40 41 41 41 41 40 40 40 41 41 41 41 42 42 42
23 24 22 25 35 36 40 38 31 36 37 36 38 37 35 36 36 36 36 36 36 35 34 34 34 34 34 34 34 34 34 34 35 35 35 35 34 34 32 30 30 29 29 30 32 34 34 34 32 32 31 31 32 32 33 33 34 34 33 34 34 34 35 36 36 35 35 37 39 39 39 39 39 39 39 40 39 39 39 39 39 39 40 41 42 42 42
32 29 31 34 37 39 39 39 38 38 38 38 38 37 36 36 35 37 36 37 36 35 35 35 34 34 34 34 34 34 34 34 35 35 34 34 33 32 32 29 31 31 30 33 33 33 33 35 34 32 31 32 33 33 34 32 30 31 33 33 34 34 34 35 36 34 36 36 37 38 38 37 37 37 38 38 38 39 38 37 37 38 38 39 40 41 42
35 36 36 37 37 37 37 38 38 37 38 38 38 37 36 36 36 36 36 37 35 35 35 34 34 34 34 34 34 34 34 33 32 33 31 30 32 32 32 33 33 30 31 32 32 34 33 34 34 35 34 31 32 34 33 32 30 31 31 32 33 33 32 34 34 33 35 36 36 38 39 36 37 36 37 36 36 38 37 37 36 37 37 38 38 39 40
31 31 36 35 36 37 37 36 37 38 38 37 38 37 38 37 37 37 38 37 35 35 35 34 34 34 34 34 34 33 32 31 31 29 30 31 31 30 29 31 32 30 31 29 31 32 33 33 33 33 34 32 31 32 31 30 31 32 32 32 32 32 33 32 33 33 35 36 35 36 38 37 37 37 36 36 36 35 36 37 36 35 36 36 37 38 39
29 33 35 35 36 36 37 36 36 36 36 37 38 38 38 37 38 38 37 36 35 35 34 34 34 34 33 32 31 30 29 30 29 28 28 28 28 29 29 28 28 28 29 30 32 32 32 33 33 33 33 32 31 31 30 31 31 32 33 31 30 31 31 32 31 32 32 31 33 34 36 37 37 37 36 37 36 36 36 37 37 36 36 36 36 37 39
33 34 34 34 35 35 35 36 36 36 36 37 37 37 38 38 37 37 36 35 35 34 34 34 34 32 31 29 31 30 28 27 26 26 26 27 28 28 26 28 29 27 30 30 32 31 32 32 33 33 33 32 31 34 30 30 33 33 33 32 31 30 31 30 30 31 31 31 32 34 34 36 39 39 37 37 37 37 41 39 38 38 38 38 38 38 37
31 32 33 35 32 31 33 35 36 36 37 37 37 37 37 37 36 35 35 34 34 34 34 33 32 31 30 29 28 26 25 26 28 28 27 27 26 25 26 27 29 31 32 33 33 31 32 32 31 30 30 31 33 31 30 29 32 33 33 32 31 29 29 30 30 29 30 28 31 32 33 33 35 41 34 35 37 38 38 36 35 35 35 37 38 38 39
30 34 34 36 36 35 35 35 36 37 37 37 36 36 36 36 35 34 34 34 34 33 33 30 30 29 30 28 27 26 25 26 27 27 26 23 23 23 25 27 30 31 31 32 32 32 32 32 30 29 30 32 34 33 32 31 31 32 32 31 30 27 28 30 30 30 28 30 29 30 32 33 34 34 38 37 34 35 35 35 35 35 35 35 35 35 37
34 36 36 37 36 34 35 36 36 35 36 35 35 35 35 34 34 34 33 32 32 30 29 28 27 28 29 28 27 26 26 27 27 26 24 22 24 24 24 26 28 29 31 31 31 32 31 30 29 30 29 32 34 34 34 33 31 32 32 32 30 29 27 30 30 29 28 28 29 29 28 29 30 33 32 36 39 35 35 35 35 35 35 35 35 35 35
34 35 36 36 36 35 36 35 35 35 36 35 34 34 34 33 32 33 32 30 30 30 30 28 28 29 30 28 28 27 25 25 26 24 23 22 24 25 26 27 29 30 30 31 30 29 28 29 29 29 28 31 33 32 33 31 31 29 33 34 33 32 30 30 29 28 28 28 28 29 30 28 30 30 31 32 32 36 39 35 35 35 35 35 35 35 35
35 35 35 36 35 35 36 34 35 35 34 35 35 34 35 35 33 30 28 28 27 27 30 32 30 28 29 28 28 27 25 25 28 26 21 20 23 24 26 29 30 31 30 29 27 25 26 27 27 28 27 30 32 34 32 30 29 30 33 33 34 33 32 33 31 32 31 31 30 29 29 27 26 27 28 33 33 33 32 36 39 37 35 35 35 35 35
35 35 35 34 34 35 34 34 33 35 35 35 34 34 33 32 32 29 28 28 28 28 28 29 30 31 30 30 31 31 26 26 25 21 19 20 21 24 27 29 30 31 32 29 26 25 28 24 25 26 28 30 32 33 32 32 30 30 33 34 32 33 33 33 31 31 31 30 29 29 28 29 29 29 30 32 31 31 34 33 33 33 37 38 36 35 36
35 35 35 34 32 32 33 34 34 34 33 33 33 32 30 28 28 29 30 30 29 29 29 29 29 30 29 30 29 28 29 25 22 21 21 20 23 25 28 31 31 31 29 27 25 26 25 24 25 27 28 30 31 32 32 32 31 32 32 32 32 31 33 33 33 32 34 33 32 29 30 31 30 30 29 30 30 31 30 32 32 33 33 35 37 35 35
34 34 34 33 32 33 33 32 32 31 32 30 28 27 27 26 26 26 27 28 29 29 29 30 30 30 29 31 29 28 26 25 24 22 22 23 24 25 28 31 31 31 29 27 26 27 27 26 26 26 29 31 30 31 32 33 32 31 32 32 31 32 33 34 35 34 33 33 36 32 31 29 27 30 28 29 30 29 29 31 32 33 33 33 35 39 37
33 33 32 32 33 32 31 30 29 29 28 26 25 24 24 24 24 25 26 26 27 27 28 30 30 31 30 30 29 28 27 27 25 24 23 22 24 26 26 27 27 28 28 25 26 26 27 27 26 25 28 32 31 31 32 34 33 31 32 32 33 33 33 34 36 34 34 35 32 31 29 29 31 32 30 30 30 29 29 30 31 32 32 31 32 33 34
34 34 34 33 30 29 28 28 27 26 25 24 25 24 24 25 25 27 27 28 27 28 29 29 30 29 30 29 30 30 29 28 25 25 25 24 25 26 26 26 25 21 23 25 27 27 27 28 28 25 29 30 31 31 33 33 33 33 32 31 30 34 33 33 33 33 34 32 32 35 32 31 31 29 29 28 28 28 28 28 30 31 31 32 33 33 35
31 30 29 28 26 25 24 24 23 24 25 26 25 24 26 26 26 27 28 29 30 29 29 30 30 30 30 30 30 30 29 28 27 27 27 27 28 29 27 26 24 24 26 27 27 28 28 28 27 27 28 30 31 30 31 32 32 32 31 30 31 30 31 33 31 32 34 33 32 32 29 32 31 30 29 28 28 29 28 28 28 29 30 30 31 34 37
28 26 25 25 24 23 23 24 24 25 25 26 28 28 27 27 28 28 28 29 29 30 29 29 30 31 32 32 31 29 29 28 27 27 28 29 33 32 28 27 26 26 27 29 30 30 30 29 29 28 27 29 30 30 30 31 30 28 28 29 29 30 29 30 32 33 30 32 31 34 32 31 32 32 29 29 29 27 28 29 29 28 29 30 32 37 35
26 25 25 25 25 23 24 24 26 27 27 27 26 27 28 28 28 28 29 30 30 30 30 31 31 32 31 31 32 34 33 30 24 25 28 29 32 31 30 27 27 28 28 30 31 29 29 30 30 29 27 27 29 29 29 27 27 25 27 26 27 25 27 29 30 30 30 30 31 31 31 31 31 30 29 29 30 28 28 28 28 28 29 31 33 35 34
26 26 25 25 25 25 26 26 26 27 28 29 30 29 30 31 30 29 30 29 31 31 30 31 29 32 34 35 33 32 32 30 28 29 30 30 31 32 31 29 28 28 28 30 30 30 31 31 30 28 28 27 27 28 28 27 29 26 27 26 27 24 25 29 28 27 27 31 30 31 31 31 30 30 30 30 32 29 27 27 27 28 29 30 31 32 34
26 25 25 25 26 27 27 26 28 30 30 29 29 30 30 30 30 31 32 33 31 31 30 30 31 33 33 32 32 32 31 31 31 30 30 30 31 29 29 27 27 27 28 29 30 31 31 32 28 28 36 28 24 27 27 27 28 28 27 29 27 24 22 22 25 24 25 29 31 31 33 31 31 31 30 32 30 29 28 27 28 27 28 30 30 31 32
26 27 26 26 26 27 29 29 28 28 28 28 29 29 29 30 30 32 33 31 31 31 31 31 31 31 32 32 32 32 32 32 29 28 28 29 29 29 29 27 27 27 27 26 29 31 31 32 30 28 33 28 26 28 39 28 31 25 29 31 28 25 24 20 22 23 22 30 32 31 30 30 32 31 30 32 30 29 30 29 27 27 29 29 29 30 30
27 27 29 30 29 28 28 27 28 29 29 29 29 28 28 28 30 32 30 30 31 32 32 31 30 31 32 32 31 31 31 30 29 30 30 30 30 29 28 27 26 26 26 27 30 30 31 33 29 31 31 29 26 26 34 29 31 36 27 25 26 26 25 22 19 17 19 25 30 30 31 31 30 30 31 29 30 30 31 31 29 28 29 29 29 29 29
25 27 28 28 28 30 30 31 31 29 28 29 28 28 29 29 30 30 30 30 31 32 31 30 29 29 30 30 29 31 31 32 32 32 32 32 31 31 27 28 29 29 31 33 33 30 33 32 32 31 30 28 27 28 31 30 30 34 27 28 29 27 28 24 21 19 18 20 24 26 29 29 30 29 29 30 30 30 29 30 30 30 30 29 29 30 30
28 27 26 27 28 29 29 29 29 30 29 29 28 28 29 29 28 28 28 30 32 31 29 29 29 27 28 28 26 27 28 32 33 32 31 32 32 31 29 29 30 34 33 28 31 31 32 29 31 33 30 28 26 25 25 32 35 28 28 27 27 25 24 24 23 18 17 17 17 24 25 25 26 27 28 29 29 29 29 29 28 28 29 28 30 30 30
26 27 29 30 29 28 28 28 29 30 29 29 26 27 27 27 27 28 29 29 30 32 30 30 29 28 28 28 28 30 30 30 31 32 31 32 29 28 25 22 33 34 34 34 34 33 35 32 31 30 31 26 26 24 27 31 32 30 27 27 27 27 24 24 20 18 17 15 17 17 20 22 24 25 25 25 27 28 29 29 29 30 30 29 29 29 29
27 27 28 28 28 28 27 27 27 29 29 29 28 29 28 29 28 28 28 28 30 32 30 30 31 36 30 30 30 31 30 30 30 31 32 30 28 28 29 28 33 33 34 33 34 33 32 32 29 27 29 27 25 26 27 26 27 27 27 27 27 25 24 21 21 18 18 19 19 18 20 21 22 24 24 24 26 29 29 29 31 31 31 30 29 29 30
27 28 28 27 28 27 28 28 28 28 28 29 30 29 28 29 29 28 29 29 30 30 30 29 35 32 31 29 29 29 30 31 30 31 31 30 31 31 30 32 34 37 30 34 36 32 30 31 30 29 28 30 28 28 27 31 27 26 26 25 25 25 22 22 21 21 20 20 19 19 21 22 22 22 23 25 26 28 29 30 30 30 29 29 29 30 30
30 28 27 27 27 28 27 27 26 27 27 29 29 30 31 30 29 27 27 27 27 28 28 29 29 29 29 29 29 28 28 29 28 28 28 29 31 34 34 32 33 34 32 34 32 31 30 30 30 33 30 30 28 29 33 28 28 26 29 26 27 25 22 24 21 22 22 22 23 23 23 23 22 23 25 26 28 29 28 29 28 28 28 29 29 29 29
30 27 28 28 28 29 27 26 27 27 27 29 30 31 30 27 27 27 27 26 28 28 28 29 29 30 30 29 29 29 28 29 29 28 31 29 26 30 34 32 33 33 34 33 33 31 30 31 34 29 29 29 29 30 32 27 28 27 27 25 26 25 23 22 22 25 25 26 25 24 25 24 23 25 27 29 29 28 27 28 29 29 29 30 30 29 29
31 29 30 30 30 30 27 28 28 27 27 29 30 30 30 28 27 28 28 28 28 29 29 29 30 30 30 30 30 32 32 30 31 32 31 31 31 32 34 33 32 33 33 32 33 32 35 30 29 30 30 30 30 31 29 27 27 26 27 26 25 24 23 25 23 25 25 23 23 23 25 25 25 24 26 28 29 28 28 29 30 29 29 30 32 31 27
32 31 31 32 31 31 30 29 28 28 30 29 27 28 29 27 29 29 29 28 29 29 29 30 30 30 31 31 30 31 28 29 30 32 32 32 33 33 32 31 32 30 31 33 31 34 33 35 30 30 30 30 30 30 28 28 28 28 26 28 27 25 24 24 25 23 23 23 23 24 27 28 27 26 26 27 27 27 28 29 29 29 29 30 30 29 29
32 32 32 31 31 32 34 33 32 29 28 26 26 25 28 30 29 28 31 31 31 31 31 31 30 32 31 31 31 31 31 30 29 29 32 34 32 32 32 32 33 30 30 30 31 29 28 29 29 30 30 30 30 29 30 29 28 28 27 27 26 25 24 24 26 22 24 22 23 24 23 24 25 27 27 26 26 27 28 30 29 29 29 28 29 31 31
32 32 32 32 33 33 31 29 27 26 25 26 25 25 27 29 30 30 30 30 30 30 30 31 31 33 33 33 33 31 31 31 30 29 32 31 31 30 31 30 30 28 31 30 33 31 30 30 29 30 30 29 30 28 28 28 29 28 28 27 26 25 25 23 23 23 22 24 23 23 24 24 24 26 25 24 26 26 26 28 29 29 31 30 28 29 30
30 32 31 31 30 29 28 25 24 24 24 24 24 26 29 30 27 28 28 29 28 28 28 28 30 31 33 32 31 31 32 33 32 32 32 32 32 31 30 30 31 30 31 32 34 30 30 29 30 30 30 30 30 30 30 29 30 29 28 27 26 25 24 24 24 22 22 23 25 25 25 25 25 26 26 26 28 25 25 28 29 29 31 30 29 31 32
30 27 26 26 26 26 26 25 25 25 25 25 26 26 29 26 25 27 27 29 28 28 26 28 29 30 30 30 30 31 33 32 32 32 31 31 32 30 30 30 31 30 30 29 30 30 29 30 30 29 30 29 28 29 27 27 26 25 26 25 27 24 23 23 22 22 24 24 24 25 25 25 26 27 25 26 24 24 24 24 27 27 28 28 30 30 30
27 25 25 25 24 25 26 24 25 25 26 26 25 27 26 25 24 26 28 31 27 27 26 28 28 29 30 30 30 31 31 32 31 31 32 31 30 30 32 30 30 29 31 30 29 33 29 29 29 28 28 28 27 26 27 26 26 28 24 23 22 21 22 23 23 23 25 27 26 25 25 27 26 25 25 25 25 26 27 27 27 28 29 30 31 31 30